Location: Croisilles
(50.1998°N, 2.8793°E)
Time: 13:14:31
(UTC+00:00)

Cosmos 1943 - Pass Details

Date: 21 January 2021
Orbit: 834 x 850 km, 71.0° (Epoch: 26 February)

Event Time Altitude Azimuth Distance (km) Brightness Sun altitude
Rises 17:19:08 0° 327° (NNW) 3,420 6.5 -8.8°
Reaches altitude 10° 17:21:39 10° 323° (NW) 2,479 5.9 -9.2°
Maximum altitude 17:27:08 51° 249° (WSW) 1,055 4.2 -10.0°
Drops below altitude 10° 17:32:33 10° 175° (S) 2,452 5.8 -10.8°
Sets 17:35:02 0° 170° (S) 3,380 6.4 -11.2°
